This is the latest recevied weather packets stored in our database for station/object AK4NG. If no packets are shown the sender has not sent any weather packets the latest 10 day(s).
| Time | Temp. | Humidity | Pressure | Rain* | Wind** | Luminosity | Snow |
|---|---|---|---|---|---|---|---|
| 1777934184 | 26.11° C | 32% | 1015 hPa | 0 mm | - | 205 W/m² | - |
| 1777933880 | 26.11° C | 30% | 1015 hPa | 0 mm | - | 221 W/m² | - |
| 1777933577 | 26.11° C | 34% | 1015.1 hPa | 0 mm | - | 238 W/m² | - |
| 1777933274 | 26.67° C | 31% | 1015.1 hPa | 0 mm | - | 256 W/m² | - |
| 1777932971 | 26.11° C | 31% | 1015.2 hPa | 0 mm | - | 272 W/m² | - |
| 1777932669 | 26.11° C | 31% | 1015.1 hPa | 0 mm | - | 288 W/m² | - |
| 1777932364 | 26.11° C | 34% | 1015.1 hPa | 0 mm | - | 307 W/m² | - |
| 1777932062 | 26.67° C | 30% | 1015.1 hPa | 0 mm | - | 327 W/m² | - |
| 1777931758 | 26.67° C | 30% | 1015.1 hPa | 0 mm | - | 348 W/m² | - |
| 1777931456 | 26.11° C | 30% | 1015.3 hPa | 0 mm | - | 368 W/m² | - |
| 1777931151 | 26.11° C | 30% | 1015.2 hPa | 0 mm | - | 386 W/m² | - |
| 1777930848 | 26.11° C | 31% | 1015.2 hPa | 0 mm | - | 404 W/m² | - |
| 1777930545 | 26.67° C | 29% | 1015.1 hPa | 0 mm | - | 422 W/m² | - |
| 1777930242 | 26.67° C | 29% | 1015.3 hPa | 0 mm | - | 449 W/m² | - |
| 1777929937 | 26.67° C | 29% | 1015.3 hPa | 0 mm | - | 481 W/m² | - |
| 1777929635 | 27.22° C | 27% | 1015.1 hPa | 0 mm | - | 512 W/m² | - |
| 1777929332 | 26.67° C | 28% | 1015.1 hPa | 0 mm | - | 532 W/m² | - |
| 1777929029 | 26.67° C | 30% | 1015.2 hPa | 0 mm | - | 554 W/m² | - |
| 1777928726 | 27.22° C | 28% | 1015.1 hPa | 0 mm | - | 556 W/m² | - |
| 1777928422 | 26.67° C | 28% | 1015 hPa | 0 mm | - | 558 W/m² | - |
| 1777928121 | 26.67° C | 29% | 1015.3 hPa | 0 mm | - | 576 W/m² | - |
| 1777927818 | 26.67° C | 30% | 1015.4 hPa | 0 mm | - | 594 W/m² | - |
| 1777927516 | 27.22° C | 29% | 1015.4 hPa | 0 mm | - | 611 W/m² | - |
| 1777927215 | 26.67° C | 30% | 1015.4 hPa | 0 mm | - | 631 W/m² | - |
| 1777926913 | 26.67° C | 32% | 1015.4 hPa | 0 mm | - | 646 W/m² | - |
* Rain latest hour (hover to see other rain measurements)
** Current wind speed in m/s (hover to see current wind gust speed)